FW7203 Weather Reports


Display with metric or nautical units.
time (UTC)temp
F
wind
direction
speed
MPH
gust
MPH
rain 1hr
in
rain 24hr
in
rain mn
in
humidity
%
barometer
mb
20210916224557 79 40 3.0 9.0 0.00 0.00 0.00 85 1010.1
20210916224038 80 5 2.0 10.0 0.00 0.00 0.00 85 1010.1
20210916223531 80 25 5.0 10.0 0.00 0.00 0.00 85 1010.1
20210916223126 80 360 2.0 8.0 0.00 0.00 0.00 84 1010.1
20210916222550 80 13 3.0 8.0 0.00 0.00 0.00 85 1010.1
20210916222031 80 5 1.0 8.0 0.00 0.00 0.00 85 1010.0
20210916221615 80 350 2.0 8.0 0.00 0.00 0.00 85 1010.1
20210916221027 80 11 2.0 10.0 0.00 0.00 0.00 85 1010.0
20210916220530 80 22 4.0 10.0 0.00 0.00 0.00 84 1010.0
20210916220115 80 346 3.0 9.0 0.00 0.00 0.00 84 1010.0
20210916215527 80 19 3.0 9.0 0.00 0.00 0.00 85 1009.9
20210916215029 80 11 4.0 11.0 0.00 0.00 0.00 84 1009.9
20210916214606 80 0 3.0 11.0 0.00 0.00 0.00 85 1009.9
20210916214030 80 5 3.0 11.0 0.00 0.00 0.00 84 1009.9
20210916213529 80 31 3.0 11.0 0.00 0.00 0.00 83 1010.0
20210916213134 80 9 5.0 11.0 0.00 0.00 0.00 83 1009.9
20210916212526 80 38 4.0 11.0 0.00 0.00 0.00 83 1009.9
20210916212031 80 21 5.0 11.0 0.00 0.00 0.00 83 1010.0
20210916211553 80 50 3.0 11.0 0.00 0.00 0.00 83 1010.0
20210916211042 81 5 4.0 11.0 0.00 0.00 0.00 83 1009.9
20210916210537 81 28 4.0 11.0 0.00 0.00 0.00 83 1010.0
20210916210244 81 346 5.0 11.0 0.00 0.00 0.00 83 1010.0
20210916205625 81 28 4.0 9.0 0.00 0.00 0.00 83 1010.0
20210916001623 77 44 2.0 9.0 0.00 0.04 0.04 87 1008.7
20210916001419 77 15 3.0 14.0 0.00 0.04 0.04 87 1008.6